811 visiteurs
Prévisions de votre ville :
Vigilance : 6 départements Mise à jour le 15/09/2019 à 16:06 - Voir la carte

Paris Roissy CDG (95380) le 15/09/2019 à 22:00 Choisir station

20.2°C 53 % N Rafales 17 km/h
Vit. moyenne 7 kmh/h

Relevés météo quotidiens pour la station de :

UTC
S: Synop
M: Metar
Loc T°C
(°C)
Td
(°C)
HR
(%)
Vis
(km)
Néb
(octa)
Vent
(km/h)
Pression
(mb)
Précipitations
(mm)
Temps
              MOY
10 min
DIR RAF 1h MESURE VAR SUR 3h    
S 00 h 02h 27.2 20.8 68 - - - 0 1020.9 +0.7/3h 0.0/6h - 0.0/3h -
S 01 h 03h 27.6 20.4 65 - - - 0 1020.7 +0.2/3h 0.0/1h -
S 02 h 04h 27.4 20.2 65 - - - 0 1020.4 -0.5/3h 0.0/1h -
S 03 h 05h 27.1 20.0 65 20 4/8 - - 0 1020.2 -0.7/3h 0.0/3h
S 04 h 06h 28.0 19.8 61 - - - 0 1020.2 -0.5/3h 0.0/1h -
S 05 h 07h 26.2 19.8 68 - - - 0 1020.6 +0.1/3h 0.0/1h -
S 06 h 08h 27.6 20.7 66 20 1/8 - - 0 1020.8 +0.6/3h 0.0/12h - 0.0/3h - 0.2/24h
S 07 h 09h 27.5 21.3 69 - - - 0 1021.4 +1.2/3h 0.0/1h -
S 08 h 10h 27.7 21.0 67 - - - 0 1021.7 +1.2/3h 0.0/1h -
S 09 h 11h 28.2 20.2 62 - - - 0 1021.7 +0.9/3h 0.0/3h -
S 10 h 12h 27.9 21.4 68 - - - 0 1021.4 0.0/3h 0.0/1h -
S 11 h 13h 28.9 22.2 67 - - - 0 1021.4 -0.3/3h 0.0/1h -
S 12 h 14h 27.7 22.6 74 - - - 0 1021.1 -0.6/3h 0.0/6h - 0.0/3h -
S 13 h 15h 28.2 22.7 72 - - - 0 1020.7 -0.7/3h 0.0/1h -
S 14 h 16h 28.3 23.0 73 - - - 0 1020.2 -1.2/3h 0.0/1h -
S 15 h 17h 27.2 22.4 75 - - - 0 1019.7 -1.4/3h 0.0/3h -
S 16 h 18h 26.9 21.6 73 - - - 0 1019.1 -1.6/3h 0.0/1h -
S 17 h 19h 26.9 22.1 75 - - - 0 1018.7 -1.5/3h 0.0/1h -
S 18 h 20h 27.8 21.1 67 - - - 0 1018.4 -1.3/3h 0.0/12h - 0.0/3h -
S 19 h 21h 28.5 21.0 64 - - - 0 1018.3 -0.8/3h 0.0/1h -
S 20 h 22h 30.4 19.7 53 - - - 0 1018.0 -0.6/3h 0.0/1h -
S 21 h 23h 28.1 20.9 65 - - - 0 1018.3 -0.1/3h 0.0/3h -
S 22 h 00h 28.7 20.2 60 - - - 0 1018.0 -0.3/3h 0.0/1h -
S 23 h 01h 28.1 20.4 63 - - - 0 1018.0 +0.1/3h 0.0/1h -
evolution des temperatures
cumul des precipitations
vent moyen et rafales
pression atmospherique

Un tiret (-) signifie que les données ne sont pas disponibles.

Passez la souris sur les pictos temps pour avoir plus de précisions. Passez les flèches sur l'icône de la direction du vent pour voir la direction précise en degrés.

Les données de l'heure en cours sont disponibles à partir de H+15 minutes.


S signifie station Synop, plus complète qu'une station Metar (M). Il y a +1h de différence entre l'heure UTC et l'heure légale en hiver et +2h en été.

Td est la mesure du point de rosée.

HR est l'humidité relative/p>

Vis est la visibilité

Néb est la nébulosité du ciel (couverture nuageuse) exprimée en octas (de 0/8 à 8/8).

Vent moy 10 min donne le vent moyen sur les 10 minutes qui précèdent le relevé.

Vent raf 1h donne la rafale maximale mesurée dans l'heure qui précède le relevé.


Les données les plus anciennes remontent à avril 2014.

Les données présentées sur cette page proviennent des stations météo officielles. Les relevés sont effectués aux normes en vigueur (anémomètre à 10m de haut, thermomètre sous abri normalisé à 2m du sol...)

Météo 60 décline toute responsabilité en cas d'absence de données, d'erreurs, de mauvaise utilisation ou interprétation et n'est pas habilité à fournir des certificats intempéries.